Time,TemperatureF,DewpointF,PressureIn,WindDirection,WindDirectionDegrees,WindSpeedMPH,WindSpeedGustMPH,Humidity,HourlyPrecipIn,Conditions,Clouds,dailyrainin,SoftwareType,DateUTC
2015-03-04 00:00:00,45.3,45.0,28.43,NNE,22,4.7,4.7,99,0.00,RA,,0.00,WeatherDisplay:10.37,2015-03-04 06:00:00,
2015-03-04 00:05:00,45.3,45.0,28.43,North,360,3.5,3.5,99,0.00,RA,,0.00,WeatherDisplay:10.37,2015-03-04 06:05:00,
2015-03-04 00:10:00,45.3,45.0,28.42,North,360,3.5,3.5,99,0.00,CLR,,0.00,WeatherDisplay:10.37,2015-03-04 06:10:00,
2015-03-04 00:15:00,45.1,44.8,28.42,NNE,22,3.7,4.7,99,0.00,,,0.00,VISReader 3.6.0.1,2015-03-04 06:15:00,
2015-03-04 00:20:00,45.1,44.8,28.42,NNE,22,3.2,3.2,99,0.00,CLR,,0.00,WeatherDisplay:10.37,2015-03-04 06:20:00,
2015-03-04 00:25:00,45.0,44.7,28.42,North,360,0.0,0.0,99,0.00,CLR,,0.00,WeatherDisplay:10.37,2015-03-04 06:25:00,
2015-03-04 00:31:00,45.0,44.7,28.42,NNW,338,3.5,3.5,99,0.00,CLR,,0.00,WeatherDisplay:10.37,2015-03-04 06:31:00,
2015-03-04 00:36:00,45.0,44.7,28.42,NNE,22,3.7,3.7,99,0.00,CLR,,0.00,WeatherDisplay:10.37,2015-03-04 06:36:00,
2015-03-04 00:41:00,44.8,44.5,28.42,NNE,22,4.2,4.2,99,0.00,CLR,,0.00,WeatherDisplay:10.37,2015-03-04 06:41:00,
2015-03-04 00:46:00,44.6,44.3,28.42,NNW,337,3.7,4.7,99,0.00,,,0.00,VISReader 3.6.0.1,2015-03-04 06:46:00,
2015-03-04 00:51:00,44.4,44.1,28.42,North,360,6.8,6.8,99,0.00,CLR,,0.00,WeatherDisplay:10.37,2015-03-04 06:51:00,
2015-03-04 00:56:00,44.4,44.1,28.43,North,360,4.7,4.7,99,0.00,CLR,,0.00,WeatherDisplay:10.37,2015-03-04 06:56:00,
2015-03-04 01:01:00,44.4,44.1,28.43,NNE,22,5.8,5.8,99,0.00,CLR,,0.00,WeatherDisplay:10.37,2015-03-04 07:01:00,
2015-03-04 01:06:00,44.4,44.1,28.43,NNE,22,6.3,6.3,99,0.00,CLR,,0.00,WeatherDisplay:10.37,2015-03-04 07:06:00,
2015-03-04 01:11:00,44.2,43.9,28.43,NNE,22,4.6,4.6,99,0.00,CLR,,0.00,WeatherDisplay:10.37,2015-03-04 07:11:00,
2015-03-04 01:16:00,44.2,43.9,28.43,NNE,22,3.5,3.5,99,0.00,CLR,,0.00,WeatherDisplay:10.37,2015-03-04 07:16:00,
2015-03-04 01:21:00,44.2,43.9,28.43,North,360,4.6,4.6,99,0.00,CLR,,0.00,WeatherDisplay:10.37,2015-03-04 07:21:00,
2015-03-04 01:26:00,44.2,43.9,28.43,North,360,4.6,4.6,99,0.00,CLR,,0.00,WeatherDisplay:10.37,2015-03-04 07:26:00,
2015-03-04 01:31:00,44.2,43.9,28.43,NNE,22,3.2,4.7,99,0.00,,,0.00,VISReader 3.6.0.1,2015-03-04 07:31:00,
2015-03-04 01:36:00,44.1,43.8,28.43,NNE,22,4.6,4.6,99,0.00,CLR,,0.00,WeatherDisplay:10.37,2015-03-04 07:36:00,
2015-03-04 01:41:00,44.1,43.8,28.43,North,360,4.7,5.3,99,0.00,,,0.00,VISReader 3.6.0.1,2015-03-04 07:41:00,
2015-03-04 01:46:00,43.9,43.6,28.43,NNE,22,5.8,5.8,99,0.00,CLR,,0.00,WeatherDisplay:10.37,2015-03-04 07:46:00,
2015-03-04 01:51:00,43.9,43.6,28.43,NNE,22,6.9,6.9,99,0.00,CLR,,0.00,WeatherDisplay:10.37,2015-03-04 07:51:00,
2015-03-04 01:56:00,42.8,42.5,28.43,North,360,9.4,9.4,99,0.00,CLR,,0.00,WeatherDisplay:10.37,2015-03-04 07:56:00,
2015-03-04 02:01:00,41.4,41.1,28.43,NNE,22,9.2,9.2,99,0.00,CLR,,0.00,WeatherDisplay:10.37,2015-03-04 08:01:00,
2015-03-04 02:06:00,40.3,40.0,28.43,North,360,6.9,6.9,99,0.00,CLR,,0.00,WeatherDisplay:10.37,2015-03-04 08:06:00,
2015-03-04 02:11:00,39.0,38.7,28.43,North,360,10.4,10.4,99,0.00,CLR,,0.00,WeatherDisplay:10.37,2015-03-04 08:11:00,
2015-03-04 02:16:00,38.3,38.0,28.43,North,360,10.4,10.4,99,0.00,CLR,,0.00,WeatherDisplay:10.37,2015-03-04 08:16:00,
2015-03-04 02:21:00,37.9,37.6,28.45,North,360,9.2,9.2,99,0.00,CLR,,0.00,WeatherDisplay:10.37,2015-03-04 08:21:00,
2015-03-04 02:26:00,37.4,37.1,28.44,NNW,337,6.8,11.4,99,0.00,,,0.00,VISReader 3.6.0.1,2015-03-04 08:26:00,
2015-03-04 02:31:00,37.0,36.7,28.45,NNW,338,11.5,11.5,99,0.00,CLR,,0.00,WeatherDisplay:10.37,2015-03-04 08:31:00,
2015-03-04 02:36:00,36.9,36.6,28.45,NNE,22,9.2,9.2,99,0.00,CLR,,0.00,WeatherDisplay:10.37,2015-03-04 08:36:00,
2015-03-04 02:41:00,36.9,36.6,28.45,NNE,22,6.8,11.4,99,0.00,,,0.00,VISReader 3.6.0.1,2015-03-04 08:41:00,
2015-03-04 02:46:00,36.7,36.4,28.45,NNE,22,9.2,9.2,99,0.00,CLR,,0.00,WeatherDisplay:10.37,2015-03-04 08:46:00,
2015-03-04 02:51:00,36.5,36.2,28.45,North,360,8.3,8.3,99,0.00,CLR,,0.00,WeatherDisplay:10.37,2015-03-04 08:51:00,
2015-03-04 02:56:00,36.3,36.0,28.45,NNE,22,9.2,9.2,99,0.00,CLR,,0.00,WeatherDisplay:10.37,2015-03-04 08:56:00,
2015-03-04 03:01:00,36.3,36.0,28.45,North,360,8.9,8.9,99,0.00,CLR,,0.00,WeatherDisplay:10.37,2015-03-04 09:01:00,
2015-03-04 03:06:00,36.3,36.0,28.45,NNW,338,9.2,9.2,99,0.00,CLR,,0.00,WeatherDisplay:10.37,2015-03-04 09:06:00,
2015-03-04 03:11:00,36.1,35.8,28.45,West,270,7.3,7.3,99,0.00,CLR,,0.00,WeatherDisplay:10.37,2015-03-04 09:11:00,
2015-03-04 03:16:00,36.0,35.7,28.45,NNW,338,8.1,8.1,99,0.00,CLR,,0.00,WeatherDisplay:10.37,2015-03-04 09:16:00,
2015-03-04 03:21:00,35.8,35.5,28.45,North,360,9.2,9.2,99,0.00,CLR,,0.00,WeatherDisplay:10.37,2015-03-04 09:21:00,
2015-03-04 03:26:00,35.8,35.5,28.45,NNW,338,10.4,10.4,99,0.00,CLR,,0.00,WeatherDisplay:10.37,2015-03-04 09:26:00,
2015-03-04 03:31:00,35.6,35.3,28.45,North,360,10.4,10.4,99,0.00,CLR,,0.00,WeatherDisplay:10.37,2015-03-04 09:31:00,
2015-03-04 03:36:00,35.6,35.3,28.46,NNE,22,5.8,9.9,99,0.00,,,0.00,VISReader 3.6.0.1,2015-03-04 09:36:00,
2015-03-04 03:41:00,35.6,35.3,28.46,North,360,8.9,8.9,99,0.00,CLR,,0.00,WeatherDisplay:10.37,2015-03-04 09:41:00,
2015-03-04 03:46:00,35.6,35.3,28.46,North,360,7.3,7.3,99,0.00,CLR,,0.00,WeatherDisplay:10.37,2015-03-04 09:46:00,
2015-03-04 03:51:00,35.4,35.1,28.46,North,360,8.1,8.1,99,0.00,CLR,,0.00,WeatherDisplay:10.37,2015-03-04 09:51:00,
2015-03-04 03:56:00,35.4,35.1,28.46,NNE,22,5.8,5.8,99,0.00,CLR,,0.00,WeatherDisplay:10.37,2015-03-04 09:56:00,
2015-03-04 04:01:00,35.2,34.9,28.47,North,360,7.3,7.3,99,0.00,CLR,,0.00,WeatherDisplay:10.37,2015-03-04 10:01:00,
2015-03-04 04:06:00,35.2,34.9,28.47,North,360,6.3,7.3,99,0.00,,,0.00,VISReader 3.6.0.1,2015-03-04 10:06:00,
2015-03-04 04:11:00,34.9,34.6,28.48,NNE,22,9.4,9.4,99,0.00,CLR,,0.00,WeatherDisplay:10.37,2015-03-04 10:11:00,
2015-03-04 04:16:00,34.7,34.4,28.48,NNE,22,9.4,9.4,99,0.00,CLR,,0.00,WeatherDisplay:10.37,2015-03-04 10:16:00,
2015-03-04 04:21:00,34.7,34.4,28.50,NNE,22,9.2,9.2,99,0.00,CLR,,0.00,WeatherDisplay:10.37,2015-03-04 10:21:00,
2015-03-04 04:26:00,34.7,34.4,28.50,North,360,9.9,9.9,99,0.00,CLR,,0.00,WeatherDisplay:10.37,2015-03-04 10:26:00,
2015-03-04 04:31:00,34.7,34.4,28.50,NNE,22,10.4,10.4,99,0.00,CLR,,0.00,WeatherDisplay:10.37,2015-03-04 10:31:00,
2015-03-04 04:36:00,34.7,34.4,28.50,NNW,338,6.9,7.1,99,0.00,CLR,,0.00,WeatherDisplay:10.37,2015-03-04 10:36:00,
2015-03-04 04:41:00,34.5,34.2,28.50,North,360,8.1,8.1,99,0.00,CLR,,0.00,WeatherDisplay:10.37,2015-03-04 10:41:00,
2015-03-04 04:46:00,34.3,34.0,28.50,West,270,9.4,9.4,99,0.00,CLR,,0.00,WeatherDisplay:10.37,2015-03-04 10:46:00,
2015-03-04 04:51:00,34.3,34.0,28.50,NNE,22,8.1,8.1,99,0.00,CLR,,0.00,WeatherDisplay:10.37,2015-03-04 10:51:00,
2015-03-04 04:56:00,34.2,33.9,28.50,NNE,22,9.2,9.2,99,0.00,CLR,,0.00,WeatherDisplay:10.37,2015-03-04 10:56:00,
2015-03-04 05:01:00,34.2,33.9,28.51,NNE,22,4.7,8.9,99,0.00,,,0.00,VISReader 3.6.0.1,2015-03-04 11:01:00,
2015-03-04 05:06:00,34.0,33.7,28.52,NNE,22,10.4,10.4,99,0.00,CLR,,0.01,WeatherDisplay:10.37,2015-03-04 11:06:00,
2015-03-04 05:11:00,33.6,33.3,28.51,North,360,8.3,8.3,99,0.01,RA,,0.01,WeatherDisplay:10.37,2015-03-04 11:11:00,
2015-03-04 05:16:00,33.4,33.1,28.51,NNW,337,10.9,11.9,99,0.01,,,0.01,VISReader 3.6.0.1,2015-03-04 11:16:00,
2015-03-04 05:21:00,33.4,33.1,28.53,NNW,338,6.9,6.9,99,0.01,CLR,,0.01,WeatherDisplay:10.37,2015-03-04 11:21:00,
2015-03-04 05:26:00,33.3,33.0,28.53,NNE,22,8.1,8.1,99,0.02,RA,,0.02,WeatherDisplay:10.37,2015-03-04 11:26:00,
2015-03-04 05:31:00,33.3,33.0,28.53,NNE,22,6.9,6.9,99,0.02,RA,,0.02,WeatherDisplay:10.37,2015-03-04 11:31:00,
2015-03-04 05:36:00,33.1,32.9,28.53,NNE,22,5.8,5.8,99,0.04,RA,,0.04,WeatherDisplay:10.37,2015-03-04 11:36:00,
2015-03-04 05:41:00,33.1,32.9,28.53,NNE,22,6.9,6.9,99,0.05,RA,,0.05,WeatherDisplay:10.37,2015-03-04 11:41:00,
2015-03-04 05:46:00,32.9,32.7,28.54,NNW,338,4.7,4.7,99,0.05,RA,,0.05,WeatherDisplay:10.37,2015-03-04 11:46:00,
2015-03-04 05:51:00,32.9,32.7,28.54,North,360,6.3,6.3,99,0.05,,,0.06,WeatherDisplay:10.37,2015-03-04 11:51:00,
2015-03-04 05:56:00,32.7,32.5,28.54,NNW,338,8.1,8.1,99,0.08,RA,,0.08,WeatherDisplay:10.37,2015-03-04 11:56:00,
2015-03-04 06:01:00,32.5,32.3,28.54,NNE,22,6.3,6.3,99,0.08,RA,,0.08,WeatherDisplay:10.37,2015-03-04 12:01:00,
2015-03-04 06:06:00,32.5,32.3,28.54,North,360,6.3,6.3,99,0.08,RA,,0.09,WeatherDisplay:10.37,2015-03-04 12:06:00,
2015-03-04 06:11:00,32.4,32.2,28.55,North,360,5.8,5.8,99,0.09,RA,,0.10,WeatherDisplay:10.37,2015-03-04 12:11:00,
2015-03-04 06:16:00,32.4,32.2,28.55,NNW,338,10.4,10.4,99,0.09,RA,,0.10,WeatherDisplay:10.37,2015-03-04 12:16:00,
2015-03-04 06:21:00,32.4,32.2,28.56,NNE,22,8.1,8.1,99,0.10,RA,,0.11,WeatherDisplay:10.37,2015-03-04 12:21:00,
2015-03-04 06:26:00,32.2,32.0,28.56,NNE,22,7.3,7.3,99,0.10,RA,,0.12,WeatherDisplay:10.37,2015-03-04 12:26:00,
2015-03-04 06:31:00,32.2,32.0,28.56,North,360,6.9,6.9,99,0.10,RA,,0.13,WeatherDisplay:10.37,2015-03-04 12:31:00,
2015-03-04 06:36:00,32.2,32.0,28.56,NW,315,6.9,6.9,99,0.09,RA,,0.13,WeatherDisplay:10.37,2015-03-04 12:36:00,
2015-03-04 06:41:00,32.0,31.8,28.56,North,360,6.3,8.9,99,0.09,,,0.14,VISReader 3.6.0.1,2015-03-04 12:41:00,
2015-03-04 06:46:00,32.0,31.8,28.57,NNW,338,6.9,6.9,99,0.09,RA,,0.14,WeatherDisplay:10.37,2015-03-04 12:46:00,
2015-03-04 06:51:00,32.0,31.8,28.57,NNE,22,5.8,5.8,99,0.09,CLR,,0.14,WeatherDisplay:10.37,2015-03-04 12:51:00,
2015-03-04 06:56:00,32.0,31.8,28.57,NNE,22,9.2,9.2,99,0.07,RA,,0.15,WeatherDisplay:10.37,2015-03-04 12:56:00,
2015-03-04 07:01:00,32.0,31.8,28.57,East,90,6.9,6.9,99,0.08,RA,,0.16,WeatherDisplay:10.37,2015-03-04 13:01:00,
2015-03-04 07:06:00,32.0,31.8,28.57,North,360,6.9,6.9,99,0.07,RA,,0.16,WeatherDisplay:10.37,2015-03-04 13:06:00,
2015-03-04 07:11:00,32.0,31.8,28.58,North,360,8.1,8.1,99,0.07,RA,,0.17,WeatherDisplay:10.37,2015-03-04 13:11:00,
2015-03-04 07:16:00,32.0,31.8,28.58,NNE,22,6.8,6.8,99,0.07,RA,,0.17,WeatherDisplay:10.37,2015-03-04 13:16:00,
2015-03-04 07:21:00,32.0,31.8,28.58,NNW,338,5.8,5.8,99,0.07,RA,,0.18,WeatherDisplay:10.37,2015-03-04 13:21:00,
2015-03-04 07:26:00,32.0,31.8,28.58,NNW,337,6.3,6.8,99,0.06,,,0.18,VISReader 3.6.0.1,2015-03-04 13:26:00,
2015-03-04 07:31:00,32.0,31.8,28.58,North,360,5.8,5.8,99,0.06,CLR,,0.18,WeatherDisplay:10.37,2015-03-04 13:31:00,
2015-03-04 07:36:00,32.0,31.8,28.57,NNE,22,6.9,6.9,99,0.06,RA,,0.19,WeatherDisplay:10.37,2015-03-04 13:36:00,
2015-03-04 07:41:00,32.0,31.8,28.57,NNW,338,5.8,5.8,99,0.05,RA,,0.19,WeatherDisplay:10.37,2015-03-04 13:41:00,
2015-03-04 07:46:00,32.0,31.8,28.60,NNE,22,8.3,8.3,99,0.06,RA,,0.20,WeatherDisplay:10.37,2015-03-04 13:46:00,
2015-03-04 07:51:00,32.0,31.8,28.60,NNE,22,6.9,6.9,99,0.06,RA,,0.20,WeatherDisplay:10.37,2015-03-04 13:51:00,
2015-03-04 07:56:00,31.5,31.3,28.61,NNE,22,10.4,10.4,99,0.05,CLR,,0.20,WeatherDisplay:10.37,2015-03-04 13:56:00,
2015-03-04 08:01:00,31.3,31.1,28.61,NNE,22,9.2,9.2,99,0.04,CLR,,0.20,WeatherDisplay:10.37,2015-03-04 14:01:00,
2015-03-04 08:06:00,31.3,31.1,28.61,North,360,7.3,7.3,99,0.04,CLR,,0.20,WeatherDisplay:10.37,2015-03-04 14:06:00,
2015-03-04 08:11:00,31.3,31.1,28.62,NNE,22,9.2,9.2,99,0.03,CLR,,0.20,WeatherDisplay:10.37,2015-03-04 14:11:00,
2015-03-04 08:16:00,31.3,31.1,28.62,NE,45,9.4,9.4,99,0.03,CLR,,0.20,WeatherDisplay:10.37,2015-03-04 14:16:00,
2015-03-04 08:21:00,31.3,31.1,28.62,NNE,22,8.9,12.5,99,0.02,,,0.20,VISReader 3.6.0.1,2015-03-04 14:21:00,
2015-03-04 08:26:00,31.1,30.9,28.62,NNW,338,6.9,6.9,99,0.02,CLR,,0.20,WeatherDisplay:10.37,2015-03-04 14:26:00,
2015-03-04 08:31:00,30.9,30.7,28.62,NNE,22,9.2,9.2,99,0.03,RA,,0.21,WeatherDisplay:10.37,2015-03-04 14:31:00,
2015-03-04 08:36:00,30.9,30.7,28.61,North,360,9.2,9.2,99,0.02,RA,,0.21,WeatherDisplay:10.37,2015-03-04 14:36:00,
2015-03-04 08:41:00,30.7,30.5,28.61,North,360,9.2,9.2,99,0.02,,,0.21,WeatherDisplay:10.37,2015-03-04 14:41:00,
2015-03-04 08:46:00,30.7,30.5,28.63,NNW,338,8.9,8.9,99,0.01,CLR,,0.21,WeatherDisplay:10.37,2015-03-04 14:46:00,
2015-03-04 08:51:00,30.7,30.5,28.62,NE,45,6.8,9.9,99,0.01,,,0.21,VISReader 3.6.0.1,2015-03-04 14:51:00,
2015-03-04 08:56:00,30.6,30.4,28.63,North,360,7.8,7.8,99,0.01,CLR,,0.21,WeatherDisplay:10.37,2015-03-04 14:56:00,
2015-03-04 09:01:00,30.6,30.4,28.62,North,360,8.1,8.1,99,0.01,CLR,,0.21,WeatherDisplay:10.37,2015-03-04 15:01:00,
2015-03-04 09:06:00,30.4,30.2,28.62,NNE,22,9.9,9.9,99,0.01,CLR,,0.21,WeatherDisplay:10.37,2015-03-04 15:06:00,
2015-03-04 09:11:00,30.2,30.0,28.63,NNE,22,8.3,8.3,99,0.01,CLR,,0.21,WeatherDisplay:10.37,2015-03-04 15:11:00,
2015-03-04 09:16:00,30.2,30.0,28.63,NNE,22,8.1,8.1,99,0.01,CLR,,0.21,WeatherDisplay:10.37,2015-03-04 15:16:00,
2015-03-04 09:21:00,29.8,29.6,28.64,NNE,22,6.9,6.9,99,0.01,CLR,,0.21,WeatherDisplay:10.37,2015-03-04 15:21:00,
2015-03-04 09:26:00,29.8,29.6,28.63,North,360,6.8,8.3,99,0.01,,,0.21,VISReader 3.6.0.1,2015-03-04 15:26:00,
2015-03-04 09:31:00,29.5,29.3,28.64,North,360,9.2,9.2,99,0.01,CLR,,0.21,WeatherDisplay:10.37,2015-03-04 15:31:00,
2015-03-04 09:36:00,29.3,29.1,28.63,NNW,337,5.8,9.4,99,0.00,,,0.21,VISReader 3.6.0.1,2015-03-04 15:36:00,
2015-03-04 09:41:00,29.1,28.9,28.63,NNE,22,7.3,7.8,99,0.00,,,0.21,VISReader 3.6.0.1,2015-03-04 15:41:00,
2015-03-04 09:46:00,28.8,28.6,28.65,NNE,22,10.4,10.4,99,0.00,CLR,,0.21,WeatherDisplay:10.37,2015-03-04 15:46:00,
2015-03-04 09:51:00,28.2,28.0,28.65,NNE,22,9.4,9.4,99,0.00,CLR,,0.21,WeatherDisplay:10.37,2015-03-04 15:51:00,
2015-03-04 09:56:00,28.2,28.0,28.65,NE,45,8.1,8.1,99,0.00,CLR,,0.21,WeatherDisplay:10.37,2015-03-04 15:56:00,
2015-03-04 10:01:00,28.0,27.8,28.65,North,360,6.9,6.9,99,0.00,CLR,,0.21,WeatherDisplay:10.37,2015-03-04 16:01:00,
2015-03-04 10:06:00,27.3,27.1,28.65,North,360,10.4,10.4,99,0.00,CLR,,0.21,WeatherDisplay:10.37,2015-03-04 16:06:00,
2015-03-04 10:11:00,27.1,26.9,28.65,North,360,10.4,10.4,99,0.00,CLR,,0.21,WeatherDisplay:10.37,2015-03-04 16:11:00,
2015-03-04 10:16:00,27.3,27.1,28.65,NNE,22,11.5,11.5,99,0.00,CLR,,0.21,WeatherDisplay:10.37,2015-03-04 16:16:00,
2015-03-04 10:21:00,27.0,26.8,28.65,North,360,9.9,9.9,99,0.00,CLR,,0.21,WeatherDisplay:10.37,2015-03-04 16:21:00,
2015-03-04 10:27:00,26.6,26.4,28.65,NNE,22,9.2,9.2,99,0.00,CLR,,0.21,WeatherDisplay:10.37,2015-03-04 16:27:00,
2015-03-04 10:31:00,26.8,26.6,28.64,NNE,22,6.8,11.4,99,0.00,,,0.21,VISReader 3.6.0.1,2015-03-04 16:31:00,
2015-03-04 10:37:00,26.2,26.0,28.66,NNE,22,10.4,10.4,99,0.00,CLR,,0.21,WeatherDisplay:10.37,2015-03-04 16:37:00,
2015-03-04 10:42:00,25.9,25.7,28.66,NNE,22,10.4,10.4,99,0.00,CLR,,0.21,WeatherDisplay:10.37,2015-03-04 16:42:00,
2015-03-04 10:47:00,25.7,25.5,28.65,NNE,22,12.5,12.5,99,0.00,CLR,,0.21,WeatherDisplay:10.37,2015-03-04 16:47:00,
2015-03-04 10:52:00,25.5,25.3,28.65,NNE,22,12.7,12.7,99,0.00,CLR,,0.21,WeatherDisplay:10.37,2015-03-04 16:52:00,
2015-03-04 10:57:00,25.7,25.5,28.66,NNE,22,13.5,13.5,99,0.00,CLR,,0.21,WeatherDisplay:10.37,2015-03-04 16:57:00,
2015-03-04 11:02:00,25.7,25.5,28.66,NNW,338,9.2,9.2,99,0.00,CLR,,0.21,WeatherDisplay:10.37,2015-03-04 17:02:00,
2015-03-04 11:07:00,25.5,25.3,28.66,NNE,22,9.4,9.4,99,0.00,CLR,,0.21,WeatherDisplay:10.37,2015-03-04 17:07:00,
2015-03-04 11:12:00,25.3,25.1,28.66,NNE,22,10.4,10.4,99,0.00,CLR,,0.21,WeatherDisplay:10.37,2015-03-04 17:12:00,
2015-03-04 11:17:00,25.2,25.0,28.66,NNE,22,8.3,11.4,99,0.00,,,0.21,VISReader 3.6.0.1,2015-03-04 17:17:00,
2015-03-04 11:22:00,25.0,24.8,28.66,NNW,338,11.5,11.6,99,0.00,CLR,,0.21,WeatherDisplay:10.37,2015-03-04 17:22:00,
2015-03-04 11:27:00,25.0,24.8,28.66,NNE,22,9.9,9.9,99,0.00,CLR,,0.21,WeatherDisplay:10.37,2015-03-04 17:27:00,
2015-03-04 11:32:00,25.0,24.8,28.66,NNE,22,9.2,9.2,99,0.00,CLR,,0.21,WeatherDisplay:10.37,2015-03-04 17:32:00,
2015-03-04 11:37:00,24.8,24.6,28.66,NNE,22,11.9,11.9,99,0.00,CLR,,0.21,WeatherDisplay:10.37,2015-03-04 17:37:00,
2015-03-04 11:42:00,24.8,24.6,28.66,North,360,10.4,10.4,99,0.00,CLR,,0.21,WeatherDisplay:10.37,2015-03-04 17:42:00,
2015-03-04 11:47:00,24.4,24.2,28.66,NNE,22,10.4,10.4,99,0.00,CLR,,0.21,WeatherDisplay:10.37,2015-03-04 17:47:00,
2015-03-04 11:52:00,24.3,24.1,28.66,NE,45,10.4,10.4,99,0.00,CLR,,0.21,WeatherDisplay:10.37,2015-03-04 17:52:00,
2015-03-04 11:57:00,24.3,24.1,28.66,NNW,338,10.4,10.4,99,0.00,CLR,,0.21,WeatherDisplay:10.37,2015-03-04 17:57:00,
2015-03-04 12:02:00,24.3,24.1,28.66,NNE,22,9.2,9.2,99,0.00,CLR,,0.21,WeatherDisplay:10.37,2015-03-04 18:02:00,
2015-03-04 12:07:00,24.1,23.9,28.66,NNE,22,10.4,10.4,99,0.00,CLR,,0.21,WeatherDisplay:10.37,2015-03-04 18:07:00,
2015-03-04 12:12:00,23.9,23.7,28.65,NE,45,12.7,12.7,99,0.00,CLR,,0.21,WeatherDisplay:10.37,2015-03-04 18:12:00,
2015-03-04 12:17:00,23.9,23.7,28.65,NNW,338,10.4,10.4,99,0.00,CLR,,0.21,WeatherDisplay:10.37,2015-03-04 18:17:00,
2015-03-04 12:22:00,23.9,23.7,28.67,NNE,22,9.2,9.2,99,0.00,CLR,,0.21,WeatherDisplay:10.37,2015-03-04 18:22:00,
2015-03-04 12:27:00,23.7,23.2,28.67,NNW,337,8.9,11.9,98,0.00,,,0.21,VISReader 3.6.0.1,2015-03-04 18:27:00,
2015-03-04 12:32:00,23.7,23.2,28.67,NE,45,11.9,11.9,98,0.00,CLR,,0.21,WeatherDisplay:10.37,2015-03-04 18:32:00,
2015-03-04 12:37:00,23.9,23.4,28.68,NE,45,7.3,7.3,98,0.00,CLR,,0.21,WeatherDisplay:10.37,2015-03-04 18:37:00,
2015-03-04 12:42:00,23.2,22.7,28.68,North,360,12.7,12.7,98,0.00,CLR,,0.21,WeatherDisplay:10.37,2015-03-04 18:42:00,
2015-03-04 12:47:00,23.0,22.5,28.68,NNW,338,8.3,9.3,98,0.00,CLR,,0.21,WeatherDisplay:10.37,2015-03-04 18:47:00,
2015-03-04 12:52:00,23.0,22.5,28.68,NNE,22,10.4,10.4,98,0.00,CLR,,0.21,WeatherDisplay:10.37,2015-03-04 18:52:00,
2015-03-04 12:57:00,23.2,22.7,28.69,NNE,22,13.5,13.5,98,0.00,CLR,,0.21,WeatherDisplay:10.37,2015-03-04 18:57:00,
2015-03-04 13:02:00,23.0,22.5,28.69,NNE,22,10.4,10.4,98,0.00,CLR,,0.21,WeatherDisplay:10.37,2015-03-04 19:02:00,
2015-03-04 13:07:00,23.0,22.5,28.69,NNE,22,7.3,7.3,98,0.00,CLR,,0.21,WeatherDisplay:10.37,2015-03-04 19:07:00,
2015-03-04 13:12:00,22.8,22.3,28.69,NNE,22,10.4,10.4,98,0.00,CLR,,0.21,WeatherDisplay:10.37,2015-03-04 19:12:00,
2015-03-04 13:17:00,22.8,22.3,28.69,NNE,22,10.4,10.4,98,0.00,CLR,,0.21,WeatherDisplay:10.37,2015-03-04 19:17:00,
2015-03-04 13:22:00,22.6,22.1,28.69,NNE,22,11.9,11.9,98,0.00,CLR,,0.21,WeatherDisplay:10.37,2015-03-04 19:22:00,
2015-03-04 13:27:00,22.5,22.0,28.69,NNW,338,9.2,9.2,98,0.00,CLR,,0.21,WeatherDisplay:10.37,2015-03-04 19:27:00,
2015-03-04 13:32:00,22.6,22.1,28.69,NNW,338,7.3,7.3,98,0.00,CLR,,0.21,WeatherDisplay:10.37,2015-03-04 19:32:00,
2015-03-04 13:37:00,22.6,22.1,28.70,North,360,7.3,7.3,98,0.00,CLR,,0.21,WeatherDisplay:10.37,2015-03-04 19:37:00,
2015-03-04 13:42:00,22.6,22.1,28.70,North,360,9.2,9.2,98,0.00,CLR,,0.21,WeatherDisplay:10.37,2015-03-04 19:42:00,
2015-03-04 13:47:00,22.8,22.3,28.69,North,360,9.2,9.2,98,0.00,CLR,,0.21,WeatherDisplay:10.37,2015-03-04 19:47:00,